Regional Weather Roundup
Issued by NWS

Home | Current Version | Previous Version | Graphics & Text | Print | Product List | Glossary On
Versions: 1 2 3 4 5 6 7 8 9 10 11 12 13 14 15 16 17 18 19 20 21 22 23 24 25 26 27 28 29 30 31 32 33 34 35 36 37 38 39 40 41 42 43 44 45 46 47 48 49 50
000
ASUS43 KTOP 280808
RWRKS

WEATHER ROUNDUP FOR KANSAS
NATIONAL WEATHER SERVICE GOODLAND KS
300 AM CDT SUN MAY 28 2017

NOTE:  "FAIR" INDICATES FEW OR NO CLOUDS BELOW 12,000 FEET WITH NO
SIGNIFICANT WEATHER AND/OR OBSTRUCTIONS TO VISIBILITY.

KSZ001>006-013>018-027>032-041>047-280900-
NORTHWEST KANSAS

CITY           SKY/WX    TMP DP  RH WIND       PRES   REMARKS
GOODLAND       CLEAR     47  44  90 W9        30.13F
HAYS           PTCLDY    55  52  89 NW3       30.04S
HILL CITY      CLEAR     55  51  86 NW9       30.05S
RUSSELL        CLOUDY    57  54  89 NW10      30.01S
$$

KSZ061>065-074>080-084>089-280900-
SOUTHWEST KANSAS

CITY           SKY/WX    TMP DP  RH WIND       PRES   REMARKS
DODGE CITY     CLOUDY    54  50  86 N13       30.03S
ELKHART          N/A     50  38  63 MISG        N/A
GARDEN CITY    CLEAR     52  49  89 NW14      30.07S
GREAT BEND     PTCLDY    57  55  93 N8        30.02F
LIBERAL        PTCLDY    54  50  86 N14       30.08F
PRATT          CLOUDY    58  53  83 N12       29.98S
$$

KSZ066>073-081>083-090>101-280900-
SOUTHEAST KANSAS

CITY           SKY/WX    TMP DP  RH WIND       PRES   REMARKS
CHANUTE        CLOUDY    66  61  84 NW6       29.91R
COFFEYVILLE    CLOUDY    67  65  93 N8        29.89S
HUTCHINSON     CLOUDY    63  55  75 N13       29.96F
MEDICINE LODGE   N/A     64  54  69 N12       29.95R
NEWTON         MOCLDY    61  58  90 N16       29.96F
PARSONS        CLOUDY    64  61  90 NW3       29.92R
WICHITA INTL   MOCLDY    65  60  84 N12       29.94F
WICHITA JABRA  MOCLDY    62  60  93 N8        29.94F
WICHITA MCCONL MOCLDY    65  60  83 NW7       29.94F
WINFIELD       MOCLDY    65  61  87 N8        29.89F
$$

KSZ007>012-019>026-033>040-048>060-102>105-280900-
NORTHEAST KANSAS

CITY           SKY/WX    TMP DP  RH WIND       PRES   REMARKS
CONCORDIA      PTCLDY    58  55  90 NW7       29.99F
EMPORIA        CLOUDY    61  59  93 NW6       29.93R
LAWRENCE       CLOUDY    60  60 100 NW8       29.90S
MANHATTAN      PTCLDY    59  58  96 SE3       29.95F
MARYSVILLE     PTCLDY    57  55  94 NW7       29.96F
OLATHE IND     CLOUDY    61  59  93 NW8       29.88F
OLATHE EXE     CLOUDY    62  61  96 N7        29.87F
SALINA         MOCLDY    62  57  83 NW7       29.98F
TOPEKA BILLARD CLEAR     61  60  97 NW8       29.91S
TOPEKA FORBES  PTCLDY    62  60  93 N9        29.91R
$$



USA.gov is the U.S. government's official web portal to all federal, state and local government web resources and services.